Погода в Старой Теризморге

Россия / Республика Мордовия     54˚15′31″N   44˚32′02″E
темп.,
°C
ветер,
м/с
пор.,
м/с
влажн.,
%
обл.,
%
осадки,
мм/ч
давл.,
гПа
погр.,
м
16 января, сб
сб1600:00−12˚ссв3696100 1.4 1003276
03:00−12˚ссв5895100 5.6 1000337
06:00−12˚ссз3596100 2.9 997257
09:00−12˚зсз3596100 4.3 997245
12:00−12˚зюз4792100 0.5 998579
15:00−12˚зюз5993100 0.8 999674
18:00−13˚зюз51094100 0.1 1000455
21:00−14˚зюз51095100 0.3 1002375
17 января, вс
вс1700:00−16˚зюз5995100 0.1 1004320
03:00−17˚зюз51096100 0.2 1006331
06:00−19˚зюз4998100 0.1 1008220
09:00−20˚зюз4798100 0.1 1010207
12:00−18˚зюз359699 0.0 1012268
15:00−19˚зюз339798 0.0 101475
18:00−21˚зюз2398100 0.0 101626
21:00−23˚зюз2210086 0.0 101720
18 января, пн
пн1800:00−24˚зюз1210067 0.0 101820
03:00−25˚юз229963 0.0 101820
06:00−26˚зсз1110095 0.0 101820
09:00−25˚ссз019898 0.0 101920
12:00−21˚с0194100 0.0 1019123
15:00−20˚сз1195100 0.0 1018133
18:00−21˚св1296100 0.0 101831
21:00−21˚св1296100 0.1 1017142
19 января, вт
вт1900:00−21˚с2299100 1.1 1017143
03:00−21˚ссв1299100 1.9 1016135
06:00−21˚с2299100 0.4 1015125
09:00−21˚с2299100 0.7 101594
12:00−19˚с2294100 0.3 1015249
15:00−19˚ссз2296100 0.5 1013263
18:00−19˚ссз2498100 0.3 1014194
21:00−20˚ссз2398100 0.5 101486
20 января, ср
ср2000:00−20˚сз3598100 0.1 1015157
03:00−19˚сз3697100 0.3 1016219
06:00−22˚зсз359879 0.1 101783
09:00−24˚зсз349868 0.1 101880
12:00−20˚зсз359890 0.0 1019226
15:00−20˚зсз369892 0.1 1020159
18:00−22˚зсз339949 0.0 102236
21:00−22˚з3310051 0.0 102325